Time,TemperatureF,DewpointF,PressureIn,WindDirection,WindDirectionDegrees,WindSpeedMPH,WindSpeedGustMPH,Humidity,HourlyPrecipIn,Conditions,Clouds,dailyrainin,SoftwareType,DateUTC
2013-06-28 00:01:00,77.5,68.2,29.36,North,-999,-999.0,-999.0,74,-99.99,,,-99.99,,2013-06-28 04:01:00,
2013-06-28 00:02:00,77.5,68.2,29.36,North,-999,-999.0,-999.0,73,-99.99,,,-99.99,,2013-06-28 04:02:00,
2013-06-28 00:07:00,77.5,68.3,29.36,North,-999,-999.0,-999.0,74,-99.99,,,-99.99,,2013-06-28 04:07:00,
2013-06-28 00:12:00,77.3,68.2,29.36,North,-999,-999.0,-999.0,74,-99.99,,,-99.99,,2013-06-28 04:12:00,
2013-06-28 00:17:00,77.0,68.0,29.35,North,-999,-999.0,-999.0,75,-99.99,,,-99.99,,2013-06-28 04:17:00,
2013-06-28 00:22:00,77.0,68.0,29.36,North,-999,-999.0,-999.0,74,-99.99,,,-99.99,,2013-06-28 04:22:00,
2013-06-28 00:27:00,77.0,67.9,29.35,North,-999,-999.0,-999.0,74,-99.99,,,-99.99,,2013-06-28 04:27:00,
2013-06-28 00:32:00,77.0,68.0,29.35,North,-999,-999.0,-999.0,74,-99.99,,,-99.99,,2013-06-28 04:32:00,
2013-06-28 00:37:00,76.8,67.9,29.35,North,-999,-999.0,-999.0,75,-99.99,,,-99.99,,2013-06-28 04:37:00,
2013-06-28 00:42:00,76.8,67.9,29.35,North,-999,-999.0,-999.0,75,-99.99,,,-99.99,,2013-06-28 04:42:00,
2013-06-28 00:47:00,76.6,67.8,29.35,North,-999,-999.0,-999.0,75,-99.99,,,-99.99,,2013-06-28 04:47:00,
2013-06-28 00:52:00,76.6,67.9,29.35,North,-999,-999.0,-999.0,75,-99.99,,,-99.99,,2013-06-28 04:52:00,
2013-06-28 00:57:00,76.6,67.9,29.35,North,-999,-999.0,-999.0,75,-99.99,,,-99.99,,2013-06-28 04:57:00,
2013-06-28 01:02:00,76.6,68.0,29.35,North,-999,-999.0,-999.0,76,-99.99,,,-99.99,,2013-06-28 05:02:00,
2013-06-28 01:07:00,76.2,67.8,29.35,North,-999,-999.0,-999.0,76,-99.99,,,-99.99,,2013-06-28 05:07:00,
2013-06-28 01:12:00,76.2,68.0,29.35,North,-999,-999.0,-999.0,77,-99.99,,,-99.99,,2013-06-28 05:12:00,
2013-06-28 01:17:00,76.1,68.3,29.35,North,-999,-999.0,-999.0,78,-99.99,,,-99.99,,2013-06-28 05:17:00,
2013-06-28 01:22:00,76.1,68.3,29.35,North,-999,-999.0,-999.0,78,-99.99,,,-99.99,,2013-06-28 05:22:00,
2013-06-28 01:27:00,76.1,68.7,29.34,North,-999,-999.0,-999.0,79,-99.99,,,-99.99,,2013-06-28 05:27:00,
2013-06-28 01:32:00,75.7,68.5,29.34,North,-999,-999.0,-999.0,80,-99.99,,,-99.99,,2013-06-28 05:32:00,
2013-06-28 01:37:00,75.9,68.7,29.34,North,-999,-999.0,-999.0,80,-99.99,,,-99.99,,2013-06-28 05:37:00,
2013-06-28 01:42:00,75.5,68.6,29.34,North,-999,-999.0,-999.0,80,-99.99,,,-99.99,,2013-06-28 05:42:00,
2013-06-28 01:47:00,75.5,68.6,29.34,North,-999,-999.0,-999.0,80,-99.99,,,-99.99,,2013-06-28 05:47:00,
2013-06-28 01:52:00,75.3,68.4,29.34,North,-999,-999.0,-999.0,80,-99.99,,,-99.99,,2013-06-28 05:52:00,
2013-06-28 01:57:00,75.5,68.5,29.34,North,-999,-999.0,-999.0,80,-99.99,,,-99.99,,2013-06-28 05:57:00,
2013-06-28 02:02:00,75.3,68.1,29.34,North,-999,-999.0,-999.0,80,-99.99,,,-99.99,,2013-06-28 06:02:00,
2013-06-28 02:07:00,75.3,68.1,29.33,North,-999,-999.0,-999.0,79,-99.99,,,-99.99,,2013-06-28 06:07:00,
2013-06-28 02:12:00,75.3,68.0,29.33,North,-999,-999.0,-999.0,79,-99.99,,,-99.99,,2013-06-28 06:12:00,
2013-06-28 02:17:00,75.2,68.0,29.33,North,-999,-999.0,-999.0,79,-99.99,,,-99.99,,2013-06-28 06:17:00,
2013-06-28 02:22:00,75.0,68.0,29.33,North,-999,-999.0,-999.0,80,-99.99,,,-99.99,,2013-06-28 06:22:00,
2013-06-28 02:28:00,75.0,68.0,29.33,North,-999,-999.0,-999.0,80,-99.99,,,-99.99,,2013-06-28 06:28:00,
2013-06-28 02:33:00,75.0,68.0,29.33,North,-999,-999.0,-999.0,80,-99.99,,,-99.99,,2013-06-28 06:33:00,
2013-06-28 02:38:00,74.8,67.7,29.33,North,-999,-999.0,-999.0,80,-99.99,,,-99.99,,2013-06-28 06:38:00,
2013-06-28 02:43:00,75.0,67.9,29.33,North,-999,-999.0,-999.0,80,-99.99,,,-99.99,,2013-06-28 06:43:00,
2013-06-28 02:48:00,74.8,67.6,29.33,North,-999,-999.0,-999.0,79,-99.99,,,-99.99,,2013-06-28 06:48:00,
2013-06-28 02:53:00,75.0,67.8,29.34,North,-999,-999.0,-999.0,79,-99.99,,,-99.99,,2013-06-28 06:53:00,
2013-06-28 02:58:00,74.8,67.6,29.33,North,-999,-999.0,-999.0,79,-99.99,,,-99.99,,2013-06-28 06:58:00,
2013-06-28 03:03:00,74.8,67.6,29.33,North,-999,-999.0,-999.0,79,-99.99,,,-99.99,,2013-06-28 07:03:00,
2013-06-28 03:08:00,75.0,67.8,29.33,North,-999,-999.0,-999.0,79,-99.99,,,-99.99,,2013-06-28 07:08:00,
2013-06-28 03:13:00,74.8,67.7,29.33,North,-999,-999.0,-999.0,80,-99.99,,,-99.99,,2013-06-28 07:13:00,
2013-06-28 03:18:00,74.8,67.7,29.33,North,-999,-999.0,-999.0,80,-99.99,,,-99.99,,2013-06-28 07:18:00,
2013-06-28 03:23:00,74.6,67.5,29.32,North,-999,-999.0,-999.0,80,-99.99,,,-99.99,,2013-06-28 07:23:00,
2013-06-28 03:28:00,74.4,67.5,29.33,North,-999,-999.0,-999.0,80,-99.99,,,-99.99,,2013-06-28 07:28:00,
2013-06-28 03:33:00,74.3,67.4,29.32,North,-999,-999.0,-999.0,80,-99.99,,,-99.99,,2013-06-28 07:33:00,
2013-06-28 03:38:00,74.1,67.3,29.33,North,-999,-999.0,-999.0,80,-99.99,,,-99.99,,2013-06-28 07:38:00,
2013-06-28 03:43:00,74.1,67.4,29.33,North,-999,-999.0,-999.0,81,-99.99,,,-99.99,,2013-06-28 07:43:00,
2013-06-28 03:48:00,73.9,67.2,29.33,North,-999,-999.0,-999.0,81,-99.99,,,-99.99,,2013-06-28 07:48:00,
2013-06-28 03:53:00,73.9,67.4,29.33,North,-999,-999.0,-999.0,81,-99.99,,,-99.99,,2013-06-28 07:53:00,
2013-06-28 03:58:00,73.7,67.2,29.33,North,-999,-999.0,-999.0,81,-99.99,,,-99.99,,2013-06-28 07:58:00,
2013-06-28 04:03:00,73.7,67.2,29.33,North,-999,-999.0,-999.0,81,-99.99,,,-99.99,,2013-06-28 08:03:00,
2013-06-28 04:08:00,73.5,67.0,29.33,North,-999,-999.0,-999.0,81,-99.99,,,-99.99,,2013-06-28 08:08:00,
2013-06-28 04:13:00,73.5,67.1,29.33,North,-999,-999.0,-999.0,82,-99.99,,,-99.99,,2013-06-28 08:13:00,
2013-06-28 04:18:00,73.5,67.0,29.33,North,-999,-999.0,-999.0,81,-99.99,,,-99.99,,2013-06-28 08:18:00,
2013-06-28 04:23:00,73.7,67.2,29.33,North,-999,-999.0,-999.0,81,-99.99,,,-99.99,,2013-06-28 08:23:00,
2013-06-28 04:28:00,73.7,67.2,29.33,North,-999,-999.0,-999.0,81,-99.99,,,-99.99,,2013-06-28 08:28:00,
2013-06-28 04:33:00,73.5,67.0,29.33,North,-999,-999.0,-999.0,81,-99.99,,,-99.99,,2013-06-28 08:33:00,
2013-06-28 04:38:00,73.5,67.1,29.33,North,-999,-999.0,-999.0,82,-99.99,,,-99.99,,2013-06-28 08:38:00,
2013-06-28 04:43:00,73.2,66.8,29.33,North,-999,-999.0,-999.0,82,-99.99,,,-99.99,,2013-06-28 08:43:00,
2013-06-28 04:48:00,73.2,66.9,29.33,North,-999,-999.0,-999.0,82,-99.99,,,-99.99,,2013-06-28 08:48:00,
2013-06-28 04:53:00,73.0,66.7,29.33,North,-999,-999.0,-999.0,82,-99.99,,,-99.99,,2013-06-28 08:53:00,
2013-06-28 04:58:00,73.0,66.7,29.33,North,-999,-999.0,-999.0,82,-99.99,,,-99.99,,2013-06-28 08:58:00,
2013-06-28 05:03:00,73.0,66.7,29.34,North,-999,-999.0,-999.0,82,-99.99,,,-99.99,,2013-06-28 09:03:00,
2013-06-28 05:08:00,73.2,66.9,29.34,North,-999,-999.0,-999.0,82,-99.99,,,-99.99,,2013-06-28 09:08:00,
2013-06-28 05:13:00,73.2,66.9,29.34,North,-999,-999.0,-999.0,82,-99.99,,,-99.99,,2013-06-28 09:13:00,
2013-06-28 05:18:00,73.4,67.1,29.34,North,-999,-999.0,-999.0,82,-99.99,,,-99.99,,2013-06-28 09:18:00,
2013-06-28 05:23:00,73.2,66.8,29.34,North,-999,-999.0,-999.0,82,-99.99,,,-99.99,,2013-06-28 09:23:00,
2013-06-28 05:28:00,73.2,66.8,29.34,North,-999,-999.0,-999.0,82,-99.99,,,-99.99,,2013-06-28 09:28:00,
2013-06-28 05:33:00,73.4,67.0,29.35,North,-999,-999.0,-999.0,82,-99.99,,,-99.99,,2013-06-28 09:33:00,
2013-06-28 05:38:00,73.2,66.9,29.35,North,-999,-999.0,-999.0,82,-99.99,,,-99.99,,2013-06-28 09:38:00,
2013-06-28 05:43:00,73.2,66.8,29.35,North,-999,-999.0,-999.0,82,-99.99,,,-99.99,,2013-06-28 09:43:00,
2013-06-28 05:48:00,73.2,66.8,29.35,North,-999,-999.0,-999.0,82,-99.99,,,-99.99,,2013-06-28 09:48:00,
2013-06-28 05:53:00,73.2,66.8,29.35,North,-999,-999.0,-999.0,82,-99.99,,,-99.99,,2013-06-28 09:53:00,
2013-06-28 05:58:00,73.4,67.0,29.34,North,-999,-999.0,-999.0,82,-99.99,,,-99.99,,2013-06-28 09:58:00,
2013-06-28 06:03:00,73.4,67.0,29.34,North,-999,-999.0,-999.0,82,-99.99,,,-99.99,,2013-06-28 10:03:00,
2013-06-28 06:08:00,73.2,66.8,29.34,North,-999,-999.0,-999.0,82,-99.99,,,-99.99,,2013-06-28 10:08:00,
2013-06-28 06:13:00,73.2,66.7,29.34,North,-999,-999.0,-999.0,81,-99.99,,,-99.99,,2013-06-28 10:13:00,
2013-06-28 06:18:00,73.5,67.0,29.34,North,-999,-999.0,-999.0,81,-99.99,,,-99.99,,2013-06-28 10:18:00,
2013-06-28 06:23:00,73.4,66.9,29.34,North,-999,-999.0,-999.0,81,-99.99,,,-99.99,,2013-06-28 10:23:00,
2013-06-28 06:28:00,73.4,66.9,29.34,North,-999,-999.0,-999.0,81,-99.99,,,-99.99,,2013-06-28 10:28:00,
2013-06-28 06:33:00,73.4,66.9,29.34,North,-999,-999.0,-999.0,81,-99.99,,,-99.99,,2013-06-28 10:33:00,
2013-06-28 06:38:00,73.4,66.9,29.35,North,-999,-999.0,-999.0,81,-99.99,,,-99.99,,2013-06-28 10:38:00,
2013-06-28 06:43:00,73.5,67.0,29.34,North,-999,-999.0,-999.0,81,-99.99,,,-99.99,,2013-06-28 10:43:00,
2013-06-28 06:48:00,73.9,67.3,29.34,North,-999,-999.0,-999.0,81,-99.99,,,-99.99,,2013-06-28 10:48:00,
2013-06-28 06:53:00,74.1,67.5,29.34,North,-999,-999.0,-999.0,81,-99.99,,,-99.99,,2013-06-28 10:53:00,
2013-06-28 06:58:00,74.3,67.5,29.34,North,-999,-999.0,-999.0,81,-99.99,,,-99.99,,2013-06-28 10:58:00,
2013-06-28 07:03:00,74.6,67.6,29.34,North,-999,-999.0,-999.0,80,-99.99,,,-99.99,,2013-06-28 11:03:00,
2013-06-28 07:08:00,75.0,67.7,29.34,North,-999,-999.0,-999.0,79,-99.99,,,-99.99,,2013-06-28 11:08:00,
2013-06-28 07:13:00,75.3,67.8,29.34,North,-999,-999.0,-999.0,78,-99.99,,,-99.99,,2013-06-28 11:13:00,
2013-06-28 07:18:00,75.5,67.7,29.34,North,-999,-999.0,-999.0,78,-99.99,,,-99.99,,2013-06-28 11:18:00,
2013-06-28 07:23:00,76.2,68.1,29.33,North,-999,-999.0,-999.0,77,-99.99,,,-99.99,,2013-06-28 11:23:00,
2013-06-28 07:28:00,76.4,68.1,29.33,North,-999,-999.0,-999.0,76,-99.99,,,-99.99,,2013-06-28 11:28:00,
2013-06-28 07:33:00,76.8,68.7,29.33,North,-999,-999.0,-999.0,77,-99.99,,,-99.99,,2013-06-28 11:33:00,
2013-06-28 07:38:00,77.0,68.9,29.33,North,-999,-999.0,-999.0,77,-99.99,,,-99.99,,2013-06-28 11:38:00,
2013-06-28 07:43:00,77.1,69.1,29.33,North,-999,-999.0,-999.0,77,-99.99,,,-99.99,,2013-06-28 11:43:00,
2013-06-28 07:48:00,77.5,69.0,29.33,North,-999,-999.0,-999.0,76,-99.99,,,-99.99,,2013-06-28 11:48:00,
2013-06-28 07:53:00,77.7,69.0,29.33,North,-999,-999.0,-999.0,75,-99.99,,,-99.99,,2013-06-28 11:53:00,
2013-06-28 07:58:00,77.9,69.1,29.33,North,-999,-999.0,-999.0,75,-99.99,,,-99.99,,2013-06-28 11:58:00,
2013-06-28 08:03:00,77.9,68.5,29.33,North,-999,-999.0,-999.0,73,-99.99,,,-99.99,,2013-06-28 12:03:00,
2013-06-28 08:08:00,78.2,68.8,29.33,North,-999,-999.0,-999.0,73,-99.99,,,-99.99,,2013-06-28 12:08:00,
2013-06-28 08:13:00,78.4,68.8,29.33,North,-999,-999.0,-999.0,73,-99.99,,,-99.99,,2013-06-28 12:13:00,
2013-06-28 08:18:00,78.4,68.4,29.33,North,-999,-999.0,-999.0,72,-99.99,,,-99.99,,2013-06-28 12:18:00,
2013-06-28 08:23:00,78.4,68.9,29.33,North,-999,-999.0,-999.0,73,-99.99,,,-99.99,,2013-06-28 12:23:00,
2013-06-28 08:28:00,78.6,69.3,29.33,North,-999,-999.0,-999.0,73,-99.99,,,-99.99,,2013-06-28 12:28:00,
2013-06-28 08:33:00,78.6,68.6,29.33,North,-999,-999.0,-999.0,72,-99.99,,,-99.99,,2013-06-28 12:33:00,
2013-06-28 08:38:00,78.2,68.7,29.33,North,-999,-999.0,-999.0,73,-99.99,,,-99.99,,2013-06-28 12:38:00,
2013-06-28 08:43:00,77.9,68.8,29.33,North,-999,-999.0,-999.0,74,-99.99,,,-99.99,,2013-06-28 12:43:00,
2013-06-28 08:48:00,77.9,68.8,29.33,North,-999,-999.0,-999.0,74,-99.99,,,-99.99,,2013-06-28 12:48:00,
2013-06-28 08:53:00,77.7,69.0,29.33,North,-999,-999.0,-999.0,75,-99.99,,,-99.99,,2013-06-28 12:53:00,
2013-06-28 08:58:00,77.7,68.8,29.33,North,-999,-999.0,-999.0,75,-99.99,,,-99.99,,2013-06-28 12:58:00,
2013-06-28 09:03:00,77.9,69.0,29.33,North,-999,-999.0,-999.0,75,-99.99,,,-99.99,,2013-06-28 13:03:00,
2013-06-28 09:08:00,77.9,69.5,29.32,North,-999,-999.0,-999.0,76,-99.99,,,-99.99,,2013-06-28 13:08:00,
2013-06-28 09:13:00,78.2,69.1,29.32,North,-999,-999.0,-999.0,74,-99.99,,,-99.99,,2013-06-28 13:13:00,
2013-06-28 09:18:00,78.8,70.0,29.32,North,-999,-999.0,-999.0,75,-99.99,,,-99.99,,2013-06-28 13:18:00,
2013-06-28 09:23:00,79.5,70.1,29.32,North,-999,-999.0,-999.0,73,-99.99,,,-99.99,,2013-06-28 13:23:00,
2013-06-28 09:28:00,79.8,70.3,29.31,North,-999,-999.0,-999.0,73,-99.99,,,-99.99,,2013-06-28 13:28:00,
2013-06-28 09:33:00,80.2,70.5,29.31,North,-999,-999.0,-999.0,72,-99.99,,,-99.99,,2013-06-28 13:33:00,
2013-06-28 09:38:00,80.2,70.0,29.31,North,-999,-999.0,-999.0,71,-99.99,,,-99.99,,2013-06-28 13:38:00,
2013-06-28 09:43:00,80.2,70.6,29.31,North,-999,-999.0,-999.0,73,-99.99,,,-99.99,,2013-06-28 13:43:00,
2013-06-28 09:48:00,80.4,70.1,29.31,North,-999,-999.0,-999.0,71,-99.99,,,-99.99,,2013-06-28 13:48:00,
2013-06-28 09:53:00,80.4,70.2,29.31,North,-999,-999.0,-999.0,71,-99.99,,,-99.99,,2013-06-28 13:53:00,
2013-06-28 09:58:00,81.1,70.8,29.31,North,-999,-999.0,-999.0,71,-99.99,,,-99.99,,2013-06-28 13:58:00,
2013-06-28 10:03:00,81.3,69.8,29.30,North,-999,-999.0,-999.0,67,-99.99,,,-99.99,,2013-06-28 14:03:00,
2013-06-28 10:08:00,81.6,70.8,29.30,North,-999,-999.0,-999.0,69,-99.99,,,-99.99,,2013-06-28 14:08:00,
2013-06-28 10:13:00,82.0,71.0,29.30,North,-999,-999.0,-999.0,69,-99.99,,,-99.99,,2013-06-28 14:13:00,
2013-06-28 10:18:00,82.2,71.0,29.30,North,-999,-999.0,-999.0,68,-99.99,,,-99.99,,2013-06-28 14:18:00,
2013-06-28 10:23:00,82.2,70.9,29.30,North,-999,-999.0,-999.0,68,-99.99,,,-99.99,,2013-06-28 14:23:00,
2013-06-28 10:28:00,82.4,70.7,29.30,North,-999,-999.0,-999.0,67,-99.99,,,-99.99,,2013-06-28 14:28:00,
2013-06-28 10:33:00,82.5,70.9,29.30,North,-999,-999.0,-999.0,67,-99.99,,,-99.99,,2013-06-28 14:33:00,
2013-06-28 10:38:00,82.4,70.4,29.29,North,-999,-999.0,-999.0,66,-99.99,,,-99.99,,2013-06-28 14:38:00,
2013-06-28 10:43:00,82.5,71.2,29.29,North,-999,-999.0,-999.0,68,-99.99,,,-99.99,,2013-06-28 14:43:00,
2013-06-28 10:48:00,82.7,70.9,29.29,North,-999,-999.0,-999.0,67,-99.99,,,-99.99,,2013-06-28 14:48:00,
2013-06-28 10:53:00,82.9,71.3,29.29,North,-999,-999.0,-999.0,67,-99.99,,,-99.99,,2013-06-28 14:53:00,
2013-06-28 10:58:00,83.1,71.4,29.28,North,-999,-999.0,-999.0,67,-99.99,,,-99.99,,2013-06-28 14:58:00,
2013-06-28 11:03:00,83.3,71.6,29.28,North,-999,-999.0,-999.0,67,-99.99,,,-99.99,,2013-06-28 15:03:00,
2013-06-28 11:08:00,83.1,71.4,29.28,North,-999,-999.0,-999.0,67,-99.99,,,-99.99,,2013-06-28 15:08:00,
2013-06-28 11:13:00,83.1,71.3,29.28,North,-999,-999.0,-999.0,67,-99.99,,,-99.99,,2013-06-28 15:13:00,
2013-06-28 11:18:00,83.1,71.1,29.28,North,-999,-999.0,-999.0,66,-99.99,,,-99.99,,2013-06-28 15:18:00,
2013-06-28 11:23:00,83.1,71.2,29.28,North,-999,-999.0,-999.0,66,-99.99,,,-99.99,,2013-06-28 15:23:00,
2013-06-28 11:28:00,83.1,71.4,29.28,North,-999,-999.0,-999.0,67,-99.99,,,-99.99,,2013-06-28 15:28:00,
2013-06-28 11:33:00,83.1,71.2,29.28,North,-999,-999.0,-999.0,66,-99.99,,,-99.99,,2013-06-28 15:33:00,
2013-06-28 11:38:00,83.1,71.4,29.28,North,-999,-999.0,-999.0,67,-99.99,,,-99.99,,2013-06-28 15:38:00,
2013-06-28 11:43:00,83.1,71.6,29.28,North,-999,-999.0,-999.0,67,-99.99,,,-99.99,,2013-06-28 15:43:00,
2013-06-28 11:48:00,83.3,71.7,29.28,North,-999,-999.0,-999.0,67,-99.99,,,-99.99,,2013-06-28 15:48:00,
2013-06-28 11:53:00,84.0,72.5,29.28,North,-999,-999.0,-999.0,67,-99.99,,,-99.99,,2013-06-28 15:53:00,
2013-06-28 11:58:00,84.5,71.3,29.27,North,-999,-999.0,-999.0,63,-99.99,,,-99.99,,2013-06-28 15:58:00,
2013-06-28 12:03:00,84.3,71.6,29.27,North,-999,-999.0,-999.0,64,-99.99,,,-99.99,,2013-06-28 16:03:00,
2013-06-28 12:08:00,84.5,72.5,29.27,North,-999,-999.0,-999.0,66,-99.99,,,-99.99,,2013-06-28 16:08:00,
2013-06-28 12:13:00,85.1,72.7,29.27,North,-999,-999.0,-999.0,65,-99.99,,,-99.99,,2013-06-28 16:13:00,
2013-06-28 12:18:00,85.2,72.4,29.26,North,-999,-999.0,-999.0,64,-99.99,,,-99.99,,2013-06-28 16:18:00,
2013-06-28 12:23:00,85.6,72.8,29.26,North,-999,-999.0,-999.0,64,-99.99,,,-99.99,,2013-06-28 16:23:00,
2013-06-28 12:28:00,86.0,71.8,29.26,North,-999,-999.0,-999.0,60,-99.99,,,-99.99,,2013-06-28 16:28:00,
2013-06-28 12:33:00,86.0,72.7,29.26,North,-999,-999.0,-999.0,62,-99.99,,,-99.99,,2013-06-28 16:33:00,
2013-06-28 12:38:00,86.3,71.7,29.26,North,-999,-999.0,-999.0,59,-99.99,,,-99.99,,2013-06-28 16:38:00,
2013-06-28 12:43:00,86.5,71.6,29.26,North,-999,-999.0,-999.0,58,-99.99,,,-99.99,,2013-06-28 16:43:00,
2013-06-28 12:48:00,86.5,72.6,29.26,North,-999,-999.0,-999.0,61,-99.99,,,-99.99,,2013-06-28 16:48:00,
2013-06-28 12:53:00,86.7,72.2,29.25,North,-999,-999.0,-999.0,59,-99.99,,,-99.99,,2013-06-28 16:53:00,
2013-06-28 12:58:00,87.0,71.6,29.25,North,-999,-999.0,-999.0,57,-99.99,,,-99.99,,2013-06-28 16:58:00,
2013-06-28 13:03:00,86.5,72.3,29.25,North,-999,-999.0,-999.0,60,-99.99,,,-99.99,,2013-06-28 17:03:00,
2013-06-28 13:08:00,86.0,71.5,29.25,North,-999,-999.0,-999.0,59,-99.99,,,-99.99,,2013-06-28 17:08:00,
2013-06-28 13:13:00,86.5,72.6,29.25,North,-999,-999.0,-999.0,61,-99.99,,,-99.99,,2013-06-28 17:13:00,
2013-06-28 13:18:00,86.9,71.9,29.25,North,-999,-999.0,-999.0,58,-99.99,,,-99.99,,2013-06-28 17:18:00,
2013-06-28 13:23:00,86.9,71.4,29.24,North,-999,-999.0,-999.0,56,-99.99,,,-99.99,,2013-06-28 17:23:00,
2013-06-28 13:28:00,86.9,72.0,29.24,North,-999,-999.0,-999.0,58,-99.99,,,-99.99,,2013-06-28 17:28:00,
2013-06-28 13:33:00,86.7,71.3,29.24,North,-999,-999.0,-999.0,57,-99.99,,,-99.99,,2013-06-28 17:33:00,
2013-06-28 13:38:00,86.7,71.2,29.24,North,-999,-999.0,-999.0,56,-99.99,,,-99.99,,2013-06-28 17:38:00,
2013-06-28 13:43:00,86.7,71.9,29.24,North,-999,-999.0,-999.0,58,-99.99,,,-99.99,,2013-06-28 17:43:00,
2013-06-28 13:48:00,86.5,71.5,29.23,North,-999,-999.0,-999.0,58,-99.99,,,-99.99,,2013-06-28 17:48:00,
2013-06-28 13:53:00,86.5,71.5,29.23,North,-999,-999.0,-999.0,58,-99.99,,,-99.99,,2013-06-28 17:53:00,
2013-06-28 13:58:00,86.1,71.6,29.23,North,-999,-999.0,-999.0,59,-99.99,,,-99.99,,2013-06-28 17:58:00,
2013-06-28 14:03:00,86.1,72.8,29.23,North,-999,-999.0,-999.0,63,-99.99,,,-99.99,,2013-06-28 18:03:00,
2013-06-28 14:08:00,86.7,73.0,29.22,North,-999,-999.0,-999.0,61,-99.99,,,-99.99,,2013-06-28 18:08:00,
2013-06-28 14:13:00,87.0,72.5,29.22,North,-999,-999.0,-999.0,59,-99.99,,,-99.99,,2013-06-28 18:13:00,
2013-06-28 14:18:00,87.0,73.3,29.22,North,-999,-999.0,-999.0,61,-99.99,,,-99.99,,2013-06-28 18:18:00,
2013-06-28 14:23:00,87.2,73.5,29.22,North,-999,-999.0,-999.0,61,-99.99,,,-99.99,,2013-06-28 18:23:00,
2013-06-28 14:28:00,87.2,73.3,29.21,North,-999,-999.0,-999.0,61,-99.99,,,-99.99,,2013-06-28 18:28:00,
2013-06-28 14:33:00,87.0,72.7,29.21,North,-999,-999.0,-999.0,60,-99.99,,,-99.99,,2013-06-28 18:33:00,
2013-06-28 14:38:00,87.2,72.7,29.20,North,-999,-999.0,-999.0,59,-99.99,,,-99.99,,2013-06-28 18:38:00,
2013-06-28 14:43:00,87.4,73.0,29.20,North,-999,-999.0,-999.0,60,-99.99,,,-99.99,,2013-06-28 18:43:00,
2013-06-28 14:48:00,87.4,71.9,29.19,North,-999,-999.0,-999.0,56,-99.99,,,-99.99,,2013-06-28 18:48:00,
2013-06-28 14:53:00,87.6,72.6,29.19,North,-999,-999.0,-999.0,58,-99.99,,,-99.99,,2013-06-28 18:53:00,
2013-06-28 14:58:00,87.8,73.2,29.19,North,-999,-999.0,-999.0,59,-99.99,,,-99.99,,2013-06-28 18:58:00,
2013-06-28 15:03:00,87.6,73.6,29.19,North,-999,-999.0,-999.0,60,-99.99,,,-99.99,,2013-06-28 19:03:00,
2013-06-28 15:08:00,87.8,73.5,29.20,North,-999,-999.0,-999.0,60,-99.99,,,-99.99,,2013-06-28 19:08:00,
2013-06-28 15:13:00,87.4,73.2,29.19,North,-999,-999.0,-999.0,60,-99.99,,,-99.99,,2013-06-28 19:13:00,
2013-06-28 15:18:00,87.4,72.9,29.19,North,-999,-999.0,-999.0,59,-99.99,,,-99.99,,2013-06-28 19:18:00,
2013-06-28 15:23:00,87.4,72.7,29.19,North,-999,-999.0,-999.0,58,-99.99,,,-99.99,,2013-06-28 19:23:00,
2013-06-28 15:28:00,87.2,73.0,29.19,North,-999,-999.0,-999.0,60,-99.99,,,-99.99,,2013-06-28 19:28:00,
2013-06-28 15:33:00,87.0,72.0,29.19,North,-999,-999.0,-999.0,58,-99.99,,,-99.99,,2013-06-28 19:33:00,
2013-06-28 15:38:00,86.7,72.3,29.19,North,-999,-999.0,-999.0,60,-99.99,,,-99.99,,2013-06-28 19:38:00,
2013-06-28 15:43:00,86.7,72.9,29.19,North,-999,-999.0,-999.0,61,-99.99,,,-99.99,,2013-06-28 19:43:00,
2013-06-28 15:48:00,85.6,74.6,29.21,North,-999,-999.0,-999.0,69,-99.99,,,-99.99,,2013-06-28 19:48:00,
2013-06-28 15:53:00,83.6,74.0,29.21,North,-999,-999.0,-999.0,73,-99.99,,,-99.99,,2013-06-28 19:53:00,
2013-06-28 15:58:00,82.4,73.7,29.22,North,-999,-999.0,-999.0,75,-99.99,,,-99.99,,2013-06-28 19:58:00,
2013-06-28 16:03:00,82.4,74.2,29.22,North,-999,-999.0,-999.0,77,-99.99,,,-99.99,,2013-06-28 20:03:00,
2013-06-28 16:08:00,82.4,74.5,29.22,North,-999,-999.0,-999.0,77,-99.99,,,-99.99,,2013-06-28 20:08:00,
2013-06-28 16:13:00,82.4,74.5,29.23,North,-999,-999.0,-999.0,77,-99.99,,,-99.99,,2013-06-28 20:13:00,
2013-06-28 16:18:00,82.4,74.3,29.23,North,-999,-999.0,-999.0,77,-99.99,,,-99.99,,2013-06-28 20:18:00,
2013-06-28 16:23:00,82.7,73.3,29.22,North,-999,-999.0,-999.0,73,-99.99,,,-99.99,,2013-06-28 20:23:00,
2013-06-28 16:28:00,82.7,72.3,29.23,North,-999,-999.0,-999.0,71,-99.99,,,-99.99,,2013-06-28 20:28:00,
2013-06-28 16:33:00,82.9,71.8,29.23,North,-999,-999.0,-999.0,68,-99.99,,,-99.99,,2013-06-28 20:33:00,
2013-06-28 16:38:00,82.9,71.9,29.22,North,-999,-999.0,-999.0,69,-99.99,,,-99.99,,2013-06-28 20:38:00,
2013-06-28 16:43:00,82.7,72.3,29.23,North,-999,-999.0,-999.0,71,-99.99,,,-99.99,,2013-06-28 20:43:00,
2013-06-28 16:48:00,82.5,71.8,29.23,North,-999,-999.0,-999.0,70,-99.99,,,-99.99,,2013-06-28 20:48:00,
2013-06-28 16:53:00,82.4,71.4,29.22,North,-999,-999.0,-999.0,69,-99.99,,,-99.99,,2013-06-28 20:53:00,
2013-06-28 16:58:00,82.2,70.9,29.21,North,-999,-999.0,-999.0,68,-99.99,,,-99.99,,2013-06-28 20:58:00,
2013-06-28 17:03:00,82.2,70.8,29.21,North,-999,-999.0,-999.0,68,-99.99,,,-99.99,,2013-06-28 21:03:00,
2013-06-28 17:08:00,82.2,70.7,29.21,North,-999,-999.0,-999.0,67,-99.99,,,-99.99,,2013-06-28 21:08:00,
2013-06-28 17:13:00,82.4,71.1,29.21,North,-999,-999.0,-999.0,68,-99.99,,,-99.99,,2013-06-28 21:13:00,
2013-06-28 17:18:00,82.5,71.6,29.21,North,-999,-999.0,-999.0,69,-99.99,,,-99.99,,2013-06-28 21:18:00,
2013-06-28 17:23:00,82.5,70.8,29.21,North,-999,-999.0,-999.0,67,-99.99,,,-99.99,,2013-06-28 21:23:00,
2013-06-28 17:28:00,82.4,71.0,29.21,North,-999,-999.0,-999.0,68,-99.99,,,-99.99,,2013-06-28 21:28:00,
2013-06-28 17:33:00,82.0,71.0,29.22,North,-999,-999.0,-999.0,69,-99.99,,,-99.99,,2013-06-28 21:33:00,
2013-06-28 17:38:00,81.8,71.2,29.22,North,-999,-999.0,-999.0,70,-99.99,,,-99.99,,2013-06-28 21:38:00,
2013-06-28 17:43:00,81.6,71.9,29.23,North,-999,-999.0,-999.0,72,-99.99,,,-99.99,,2013-06-28 21:43:00,
2013-06-28 17:48:00,81.6,72.3,29.24,North,-999,-999.0,-999.0,74,-99.99,,,-99.99,,2013-06-28 21:48:00,
2013-06-28 17:53:00,82.0,71.4,29.23,North,-999,-999.0,-999.0,70,-99.99,,,-99.99,,2013-06-28 21:53:00,
2013-06-28 17:58:00,82.4,69.7,29.22,North,-999,-999.0,-999.0,64,-99.99,,,-99.99,,2013-06-28 21:58:00,
2013-06-28 18:03:00,82.9,69.2,29.22,North,-999,-999.0,-999.0,61,-99.99,,,-99.99,,2013-06-28 22:03:00,
2013-06-28 18:08:00,83.1,68.9,29.22,North,-999,-999.0,-999.0,60,-99.99,,,-99.99,,2013-06-28 22:08:00,
2013-06-28 18:13:00,83.3,68.3,29.21,North,-999,-999.0,-999.0,58,-99.99,,,-99.99,,2013-06-28 22:13:00,
2013-06-28 18:18:00,83.6,68.5,29.21,North,-999,-999.0,-999.0,58,-99.99,,,-99.99,,2013-06-28 22:18:00,
2013-06-28 18:23:00,83.6,68.1,29.20,North,-999,-999.0,-999.0,56,-99.99,,,-99.99,,2013-06-28 22:23:00,
2013-06-28 18:28:00,84.0,68.4,29.20,North,-999,-999.0,-999.0,56,-99.99,,,-99.99,,2013-06-28 22:28:00,
2013-06-28 18:33:00,83.8,67.5,29.20,North,-999,-999.0,-999.0,54,-99.99,,,-99.99,,2013-06-28 22:33:00,
2013-06-28 18:38:00,83.6,67.4,29.20,North,-999,-999.0,-999.0,55,-99.99,,,-99.99,,2013-06-28 22:38:00,
2013-06-28 18:43:00,83.6,66.9,29.19,North,-999,-999.0,-999.0,53,-99.99,,,-99.99,,2013-06-28 22:43:00,
2013-06-28 18:48:00,83.3,66.8,29.19,North,-999,-999.0,-999.0,53,-99.99,,,-99.99,,2013-06-28 22:48:00,
2013-06-28 18:53:00,83.1,66.9,29.20,North,-999,-999.0,-999.0,55,-99.99,,,-99.99,,2013-06-28 22:53:00,
2013-06-28 18:58:00,82.9,66.7,29.20,North,-999,-999.0,-999.0,55,-99.99,,,-99.99,,2013-06-28 22:58:00,
2013-06-28 19:03:00,82.9,67.0,29.21,North,-999,-999.0,-999.0,55,-99.99,,,-99.99,,2013-06-28 23:03:00,
2013-06-28 19:08:00,82.5,66.8,29.22,North,-999,-999.0,-999.0,56,-99.99,,,-99.99,,2013-06-28 23:08:00,
2013-06-28 19:13:00,82.2,66.8,29.22,North,-999,-999.0,-999.0,57,-99.99,,,-99.99,,2013-06-28 23:13:00,
2013-06-28 19:18:00,81.5,66.4,29.22,North,-999,-999.0,-999.0,57,-99.99,,,-99.99,,2013-06-28 23:18:00,
2013-06-28 19:23:00,81.5,66.2,29.23,North,-999,-999.0,-999.0,57,-99.99,,,-99.99,,2013-06-28 23:23:00,
2013-06-28 19:28:00,81.3,66.0,29.23,North,-999,-999.0,-999.0,57,-99.99,,,-99.99,,2013-06-28 23:28:00,
2013-06-28 19:33:00,80.9,66.1,29.24,North,-999,-999.0,-999.0,58,-99.99,,,-99.99,,2013-06-28 23:33:00,
2013-06-28 19:38:00,80.7,66.1,29.24,North,-999,-999.0,-999.0,59,-99.99,,,-99.99,,2013-06-28 23:38:00,
2013-06-28 19:43:00,80.6,66.0,29.25,North,-999,-999.0,-999.0,59,-99.99,,,-99.99,,2013-06-28 23:43:00,
2013-06-28 19:48:00,80.4,65.7,29.25,North,-999,-999.0,-999.0,59,-99.99,,,-99.99,,2013-06-28 23:48:00,
2013-06-28 19:53:00,80.2,65.5,29.26,North,-999,-999.0,-999.0,59,-99.99,,,-99.99,,2013-06-28 23:53:00,
2013-06-28 19:58:00,80.2,65.4,29.26,North,-999,-999.0,-999.0,58,-99.99,,,-99.99,,2013-06-28 23:58:00,
2013-06-28 20:03:00,80.2,66.0,29.26,North,-999,-999.0,-999.0,60,-99.99,,,-99.99,,2013-06-29 00:03:00,
2013-06-28 20:08:00,80.2,65.8,29.26,North,-999,-999.0,-999.0,59,-99.99,,,-99.99,,2013-06-29 00:08:00,
2013-06-28 20:13:00,80.2,66.0,29.26,North,-999,-999.0,-999.0,60,-99.99,,,-99.99,,2013-06-29 00:13:00,
2013-06-28 20:18:00,80.0,65.8,29.26,North,-999,-999.0,-999.0,60,-99.99,,,-99.99,,2013-06-29 00:18:00,
2013-06-28 20:23:00,80.2,65.9,29.25,North,-999,-999.0,-999.0,60,-99.99,,,-99.99,,2013-06-29 00:23:00,
2013-06-28 20:28:00,79.8,65.5,29.25,North,-999,-999.0,-999.0,60,-99.99,,,-99.99,,2013-06-29 00:28:00,
2013-06-28 20:33:00,79.8,65.8,29.25,North,-999,-999.0,-999.0,60,-99.99,,,-99.99,,2013-06-29 00:33:00,
2013-06-28 20:38:00,79.5,65.7,29.26,North,-999,-999.0,-999.0,61,-99.99,,,-99.99,,2013-06-29 00:38:00,
2013-06-28 20:43:00,79.1,65.3,29.26,North,-999,-999.0,-999.0,61,-99.99,,,-99.99,,2013-06-29 00:43:00,
2013-06-28 20:48:00,78.6,65.0,29.26,North,-999,-999.0,-999.0,62,-99.99,,,-99.99,,2013-06-29 00:48:00,
2013-06-28 20:53:00,78.6,65.2,29.27,North,-999,-999.0,-999.0,62,-99.99,,,-99.99,,2013-06-29 00:53:00,
2013-06-28 20:58:00,78.4,64.9,29.26,North,-999,-999.0,-999.0,62,-99.99,,,-99.99,,2013-06-29 00:58:00,
2013-06-28 21:03:00,78.4,64.8,29.26,North,-999,-999.0,-999.0,62,-99.99,,,-99.99,,2013-06-29 01:03:00,
2013-06-28 21:08:00,78.2,65.0,29.26,North,-999,-999.0,-999.0,63,-99.99,,,-99.99,,2013-06-29 01:08:00,
2013-06-28 21:13:00,78.0,64.6,29.27,North,-999,-999.0,-999.0,62,-99.99,,,-99.99,,2013-06-29 01:13:00,
2013-06-28 21:18:00,77.9,64.8,29.27,North,-999,-999.0,-999.0,63,-99.99,,,-99.99,,2013-06-29 01:18:00,
2013-06-28 21:23:00,77.9,65.0,29.27,North,-999,-999.0,-999.0,64,-99.99,,,-99.99,,2013-06-29 01:23:00,
2013-06-28 21:28:00,77.9,65.1,29.27,North,-999,-999.0,-999.0,64,-99.99,,,-99.99,,2013-06-29 01:28:00,
2013-06-28 21:33:00,77.9,65.1,29.27,North,-999,-999.0,-999.0,64,-99.99,,,-99.99,,2013-06-29 01:33:00,
2013-06-28 21:38:00,77.7,64.9,29.27,North,-999,-999.0,-999.0,64,-99.99,,,-99.99,,2013-06-29 01:38:00,
2013-06-28 21:43:00,77.7,64.7,29.27,North,-999,-999.0,-999.0,63,-99.99,,,-99.99,,2013-06-29 01:43:00,
2013-06-28 21:48:00,77.7,64.6,29.28,North,-999,-999.0,-999.0,63,-99.99,,,-99.99,,2013-06-29 01:48:00,
2013-06-28 21:53:00,77.5,64.4,29.28,North,-999,-999.0,-999.0,63,-99.99,,,-99.99,,2013-06-29 01:53:00,
2013-06-28 21:58:00,77.3,64.5,29.28,North,-999,-999.0,-999.0,64,-99.99,,,-99.99,,2013-06-29 01:58:00,
2013-06-28 22:03:00,77.3,64.6,29.28,North,-999,-999.0,-999.0,64,-99.99,,,-99.99,,2013-06-29 02:03:00,
2013-06-28 22:08:00,77.1,64.5,29.28,North,-999,-999.0,-999.0,65,-99.99,,,-99.99,,2013-06-29 02:08:00,
2013-06-28 22:09:00,77.1,64.5,29.28,North,-999,-999.0,-999.0,65,-99.99,,,-99.99,,2013-06-29 02:09:00,
2013-06-28 22:14:00,77.3,64.7,29.28,North,-999,-999.0,-999.0,65,-99.99,,,-99.99,,2013-06-29 02:14:00,
2013-06-28 22:19:00,77.1,64.8,29.28,North,-999,-999.0,-999.0,65,-99.99,,,-99.99,,2013-06-29 02:19:00,
2013-06-28 22:24:00,77.0,64.8,29.28,North,-999,-999.0,-999.0,66,-99.99,,,-99.99,,2013-06-29 02:24:00,
2013-06-28 22:29:00,77.0,64.9,29.28,North,-999,-999.0,-999.0,66,-99.99,,,-99.99,,2013-06-29 02:29:00,
2013-06-28 22:34:00,77.0,64.9,29.28,North,-999,-999.0,-999.0,66,-99.99,,,-99.99,,2013-06-29 02:34:00,
2013-06-28 22:39:00,77.0,64.9,29.28,North,-999,-999.0,-999.0,66,-99.99,,,-99.99,,2013-06-29 02:39:00,
2013-06-28 22:44:00,77.0,64.9,29.29,North,-999,-999.0,-999.0,66,-99.99,,,-99.99,,2013-06-29 02:44:00,
2013-06-28 22:49:00,76.6,64.6,29.30,North,-999,-999.0,-999.0,66,-99.99,,,-99.99,,2013-06-29 02:49:00,
2013-06-28 22:54:00,76.6,64.6,29.29,North,-999,-999.0,-999.0,66,-99.99,,,-99.99,,2013-06-29 02:54:00,
2013-06-28 22:59:00,76.6,65.0,29.30,North,-999,-999.0,-999.0,67,-99.99,,,-99.99,,2013-06-29 02:59:00,
2013-06-28 23:04:00,76.4,64.6,29.30,North,-999,-999.0,-999.0,67,-99.99,,,-99.99,,2013-06-29 03:04:00,
2013-06-28 23:09:00,76.2,64.7,29.30,North,-999,-999.0,-999.0,67,-99.99,,,-99.99,,2013-06-29 03:09:00,
2013-06-28 23:14:00,76.2,64.7,29.29,North,-999,-999.0,-999.0,68,-99.99,,,-99.99,,2013-06-29 03:14:00,
2013-06-28 23:19:00,76.1,64.8,29.29,North,-999,-999.0,-999.0,68,-99.99,,,-99.99,,2013-06-29 03:19:00,
2013-06-28 23:24:00,76.1,65.0,29.29,North,-999,-999.0,-999.0,69,-99.99,,,-99.99,,2013-06-29 03:24:00,
2013-06-28 23:29:00,76.1,64.8,29.29,North,-999,-999.0,-999.0,68,-99.99,,,-99.99,,2013-06-29 03:29:00,
2013-06-28 23:34:00,76.1,65.0,29.29,North,-999,-999.0,-999.0,69,-99.99,,,-99.99,,2013-06-29 03:34:00,
2013-06-28 23:39:00,76.1,65.1,29.29,North,-999,-999.0,-999.0,69,-99.99,,,-99.99,,2013-06-29 03:39:00,
2013-06-28 23:44:00,75.7,64.6,29.29,North,-999,-999.0,-999.0,69,-99.99,,,-99.99,,2013-06-29 03:44:00,
2013-06-28 23:49:00,75.7,64.7,29.29,North,-999,-999.0,-999.0,69,-99.99,,,-99.99,,2013-06-29 03:49:00,
2013-06-28 23:54:00,75.9,64.8,29.29,North,-999,-999.0,-999.0,68,-99.99,,,-99.99,,2013-06-29 03:54:00,
2013-06-28 23:59:00,76.1,65.0,29.29,North,-999,-999.0,-999.0,69,-99.99,,,-99.99,,2013-06-29 03:59:00,